Regional Weather Roundup
Issued by NWS

Home | Current Version | Previous Version | Graphics & Text | Print | Product List | Glossary On
Versions: 1 2 3 4 5 6 7 8 9 10 11 12 13 14 15 16 17 18 19 20 21 22 23 24 25 26 27 28 29 30 31 32 33 34 35 36 37 38 39 40 41 42 43 44 45 46 47 48 49 50
000
ASUS45 KABQ 271301
RWRNM
WEATHER ROUNDUP FOR NEW MEXICO
NATIONAL WEATHER SERVICE ALBUQUERQUE NM
600 AM MST TUE JAN 27 2015

NOTE: "FAIR" MEANS FEW OR NO CLOUDS BELOW 12,000 FEET AGL WITH NO
       SIGNIFICANT WEATHER OR OBSTRUCTIONS TO VISION.

      THIS PRODUCT IS RELEASED AS TWO VERSIONS.  ONE VERSION NEAR
      THE TOP OF THE HOUR CONTAINING PRELIMINARY DATA FROM ALBUQUERQUE
      AND OTHER STATIONS.  A FINAL VERSION WITH ADDITIONAL DATA IS
      ISSUED ABOUT 10 MINUTES AFTER THE HOUR.

NMZ501-503-504-510>518-271400-
NORTHWEST PLATEAU/NORTHCENTRAL MOUNTAINS

CITY           SKY/WX    TMP DP  RH WIND       PRES   REMARKS
FARMINGTON     CLEAR     31  24  75 SE14      30.30S WCI  21
SANTA FE       PTCLDY    32  25  75 N15       30.33S WCI  22
TAOS           PTCLDY    25  19  80 N6        30.39S WCI  18

$$
NMZ402-403-502-505>509-271400-
WESTCENTRAL MOUNTAINS/SOUTHWEST MOUNTAINS

CITY           SKY/WX    TMP DP  RH WIND       PRES   REMARKS
GALLUP         MOCLDY    29  24  82 E6        30.36R WCI  23
SILVER CITY    MOCLDY    39  32  75 NW8       30.35R WCI  34

$$
NMZ407-409-411-412-271400-
SOUTHERN DESERTS

CITY           SKY/WX    TMP DP  RH WIND       PRES   REMARKS
DEMING         CLOUDY    44  36  73 N3        30.30S
HOLLOMAN AFB   PTCLDY    36  31  82 CALM      30.29R
ALAMOGORDO     PTCLDY    37  28  70 CALM      30.30S
T OR C         CLOUDY    43  31  62 CALM      30.31R

$$
NMZ519>523-271400-
CENTRAL VALLEYS/CENTRAL HIGHLANDS

CITY           SKY/WX    TMP DP  RH WIND       PRES   REMARKS
ALBUQUERQUE    PTCLDY    35  26  69 N6        30.32S WCI  30
DOUBLE EAGLE   CLEAR     32  25  74 N9        30.33S WCI  24
MORIARTY ARPT  FAIR      27  22  83 CALM      30.35S
CLINES CORNERS PTCLDY    38  21  50 NW8       30.32F WCI  32
BELEN          FAIR      27  25  94 NW6       30.33S WCI  20
SOCORRO        NOT AVBL

$$
NMZ524>526-539-540-271400-
SOUTHCENTRAL MOUNTAINS

CITY           SKY/WX    TMP DP  RH WIND       PRES   REMARKS
RUIDOSO        NOT AVBL

$$
NMZ527>531-271400-
NORTHEAST HIGHLANDS/NORTHEAST PLAINS

CITY           SKY/WX    TMP DP  RH WIND       PRES   REMARKS
LAS VEGAS      CLEAR     30  23  75 NE5       30.32F WCI  25
RATON          CLEAR     28  23  81 NE6       30.30S WCI  22
CLAYTON        CLEAR     44  26  49 W13       30.22S

$$
NMZ532>537-271400-
EASTCENTRAL PLAINS

CITY           SKY/WX    TMP DP  RH WIND       PRES   REMARKS
TUCUMCARI      LGT RAIN  34  29  82 W7        30.24S WCI  28
CANNON AFB     PTCLDY    38  29  68 N5        30.25S WCI  35
CLOVIS AIRPORT PTCLDY    37  28  70 NW5       30.25R WCI  34

$$
NMZ028-029-538-271400-
SOUTHEAST PLAINS

CITY           SKY/WX    TMP DP  RH WIND       PRES   REMARKS
ROSWELL        CLEAR     35  30  82 W3        30.27R
ARTESIA        PTCLDY    34  32  93 NW8       30.28R WCI  27
CARLSBAD       PTCLDY    35  30  82 CALM      30.26R
HOBBS          CLEAR     37  32  81 NW10      30.25S WCI  30


$$


USA.gov is the U.S. government's official web portal to all federal, state and local government web resources and services.